Location: Castifao
(42.5040°N, 9.1124°E)
Time: 13:02:42
(UTC+00:00)

ERBS - Pass Details

Date: 23 January 2020
Orbit: 412 x 427 km, 57.0° (Epoch: 22 February)

Event Time Altitude Azimuth Distance (km) Brightness Sun altitude
Rises 17:01:14 0° 232° (SW) 2,347 7.7 -7.0°
Reaches altitude 10° 17:03:19 10° 235° (SW) 1,485 6.5 -7.4°
Maximum altitude 17:06:37 65° 317° (NW) 459 2.5 -7.9°
Drops below altitude 10° 17:09:55 10° 41° (NE) 1,489 4.5 -8.5°
Enters shadow 17:10:08 - 42° (NE) 1,577 4.6 -8.6°
